Вернуться в каталог

FENGYUN 1C DEB

АктивенPO
NORAD 35207·DEBRIS·🇨🇳 China

Запущен May 10, 1999 с Taiyuan Satellite Launch Center

Loading…

Ближайшие Пролёты (ближайшие 24 часа)

TLE

СвежийSource: Space-Track

Эпоха: Sep 13, 2026, 12:59 UTC

1 35207U 99025DPP 26256.54166177  .00005932  00000-0  12303-2 0  9990
2 35207  98.7005  12.1077 0052686 133.6397 226.9189 14.59712952689088

Отслеживайте FENGYUN 1C DEB в реальном времени с AllMySat

Download on the App Store